loading
|

ONEWEB-0060, 45455

Orbit data source: Space-Track

ONEWEB-0060, 45455 is a payload satellite owned by One Web (UK) in LEO that was launched on Sat, 21 Mar 2020 UTC via a SOYUZ-2-1B launch vehicle from the Tyuratam Missile And Space Complex (TTMTR). Payloads include a variety of satellites, spacecraft, and rockets equipped with specific instruments for various scientific and technological missions. These include communications satellites like Starlink; space stations such as the ISS; scientific satellites like the Hubble; Earth observation satellites from companies like Planet Labs, Umbra, and HawkEye 360; GPS; miniature CubeSats for education and research; and military/defense satellites.

Loading next visibility...
Loading greatness...
ONEWEB-0060 details
Identifier
45455, 2020-020AH
Orbit
LEO
Last TLE update8 hours ago
Origin
Flag of UKOne Web (UK)
ManufacturerOne Web
MissionOperational Commercial Communications
Bus & MotorARROW, Unknown motor
Mass148 kg wet, ~140 kg dry
Launch date (UTC)
2020-03-21 (5 years ago)
Launch vehicle
SOYUZ-2-1B
Launch site
Tyuratam Missile And Space Complex (TTMTR)
Object type
Payload
Rocket body
Debris
Shape & HBRTrap Box + 2 Pan, 5 m
Radar Cross Section2.957 m², Large (>1 m²)

Expand to show TLE details & history

TLE from 8 hours ago
0 ONEWEB-0060
1 45455U 20020AH  24279.56279573  .00000054  00000-0  11556-3 0  9995
2 45455  87.8938 144.4969 0001455  72.3853 287.7434 13.11416729221339
Epoch: 2024-10-05T13:30Z
Definitive object data (Epoch: 2024-10-05T13:30:25.551Z)
Latitude0.00003°
Longitude-72.82688°
Altitude1,220.236 km
Speed7.244 km/s
True Right ascension09h 37m 59s
True Declination0° 00' 00"
Sunlit
Object was in daylight at TLE epoch
Predictive object data (real-time)
Latitude24.55914°
Longitude106.14795°
Altitude1,220.538 km
Speed7.246 km/s
Apparent Right ascension23h 56m 11s
Apparent Declination-6° 17' 44"
Sunlit
Object is in full shadow
Predictive observer data (real-time)
Local Sidereal Time15:37:01
Azimuth71.077° E
Elevation-30.357°
Doppler factor1
Orbital elements
Apogee1,215.906 km
Perigee1,213.697 km
Semi-major axis7,592.939 km
Eccentricity0.0001455
Inclination87.8938°
RAAN144.4969°
Arg. of periapsis72.3853°
True anomaly287.72752°
Mean anomaly287.7434°
Eccentric anomaly287.73546°
Mean motion3.28041 °/min
BSTAR0.00011556
Period109.74 mins
No data available

ONEWEB-0060 Visibility forecast

Observer location: 39.9160978°, -105.1181434

ONEWEB-0060 is not visible in the next 10 days
Span
Click to sort rows by Start time (UTC) header in descending order
Start Az.
Max El. time (UTC)
Max El. Az.
Max El.
End time (UTC)
End Az.